ENST Weather Reports


time (UTC)temp
C
wind
direction
speed
KPH
gust
KPH
rain 1hr
cm
rain 24hr
cm
rain mn
cm
humidity
%
barometer
mb
20260506050306 2 190 12.9 0.0 0.00 0.00 0.00 93 1006.0
20260506043307 2 190 12.9 0.0 0.00 0.00 0.00 93 1006.0
20260506040307 2 190 12.9 0.0 0.00 0.00 0.00 93 1006.0
20260506033307 2 180 12.9 0.0 0.00 0.00 0.00 86 1006.0
20260506030307 1 180 12.9 0.0 0.00 0.00 0.00 93 1005.0
20260506023306 2 200 11.3 0.0 0.00 0.00 0.00 80 1005.0
20260506020306 2 250 14.5 0.0 0.00 0.00 0.00 80 1005.0
20260506013307 3 280 19.3 0.0 0.00 0.00 0.00 80 1005.0
20260506010307 5 290 11.3 0.0 0.00 0.00 0.00 75 1005.0
20260506003306 5 260 8.0 0.0 0.00 0.00 0.00 75 1004.0
20260506000307 3 280 11.3 0.0 0.00 0.00 0.00 75 1004.0
20260505233307 3 260 9.7 0.0 0.00 0.00 0.00 80 1004.0
20260505230306 2 270 8.0 0.0 0.00 0.00 0.00 86 1004.0
20260505223306 2 0 1.6 0.0 0.00 0.00 0.00 86 1004.0
20260505220306 3 350 9.7 0.0 0.00 0.00 0.00 75 1004.0
20260505213306 3 310 14.5 0.0 0.00 0.00 0.00 80 1003.0
20260505210306 3 230 16.1 0.0 0.00 0.00 0.00 86 1003.0
20260505203306 3 230 24.1 0.0 0.00 0.00 0.00 86 1003.0
20260505200306 3 230 19.3 0.0 0.00 0.00 0.00 86 1003.0
20260505193306 2 200 12.9 0.0 0.00 0.00 0.00 93 1003.0
20260505190306 1 180 16.1 0.0 0.00 0.00 0.00 10 1003.0
20260505183306 0 180 20.9 0.0 0.00 0.00 0.00 10 1003.0
20260505180307 1 210 32.2 0.0 0.00 0.00 0.00 93 1003.0
20260505173307 0 210 25.7 0.0 0.00 0.00 0.00 10 1003.0
20260505170307 0 240 29.0 0.0 0.00 0.00 0.00 10 1004.0
20260505163307 2 230 35.4 0.0 0.00 0.00 0.00 86 1003.0
20260505160307 3 250 24.1 0.0 0.00 0.00 0.00 80 1004.0
20260505153307 2 210 24.1 0.0 0.00 0.00 0.00 86 1004.0
20260505150306 2 240 33.8 0.0 0.00 0.00 0.00 80 1004.0
20260505140307 1 250 32.2 49.9 0.00 0.00 0.00 86 1004.0
20260505130307 5 230 32.2 0.0 0.00 0.00 0.00 70 1003.0
20260505123306 5 240 25.7 0.0 0.00 0.00 0.00 65 1003.0
20260505120306 5 240 20.9 0.0 0.00 0.00 0.00 75 1003.0
20260505113307 5 190 14.5 0.0 0.00 0.00 0.00 70 1003.0
20260505110307 1 230 9.7 0.0 0.00 0.00 0.00 86 1003.0
20260505100307 1 240 19.3 0.0 0.00 0.00 0.00 86 1003.0
20260505093306 1 240 19.3 0.0 0.00 0.00 0.00 86 1003.0
20260505090307 5 220 11.3 0.0 0.00 0.00 0.00 65 1002.0
20260505083306 3 260 8.0 0.0 0.00 0.00 0.00 64 1002.0
20260505080307 3 260 8.0 0.0 0.00 0.00 0.00 64 1002.0
20260505073306 3 210 9.7 0.0 0.00 0.00 0.00 75 1002.0
20260505070307 2 190 4.8 0.0 0.00 0.00 0.00 74 1002.0
20260505063306 0 140 9.7 0.0 0.00 0.00 0.00 86 1002.0
20260505060306 0 280 9.7 0.0 0.00 0.00 0.00 86 1002.0
20260505053309 1 300 16.1 0.0 0.00 0.00 0.00 80 1002.0